Burlington, NC

10:38 PM EST on February 05, 2016 (GMT -0500)
Burlington-Alamance Regional

Weather History for KBUY - April, 2013

Change the Weather History Date:

Monday, April 22, 2013

  Actual Average Record
Temperature  
Mean Temperature 50 °F -  
Max Temperature 63 °F 73 °F 92 °F (1970)
Min Temperature 37 °F 49 °F 34 °F (1953)
Degree Days  
Heating Degree Days 15    
Moisture  
Dew Point 34 °F    
Average Humidity 56    
Maximum Humidity 89    
Minimum Humidity 30    
Precipitation  
Precipitation 0.00 in - - ()
Sea Level Pressure  
Sea Level Pressure 30.37 in    
Wind  
Wind Speed 8 mph (NE)    
Max Wind Speed 14 mph    
Max Gust Speed 22 mph    
Visibility 10 miles    
Events      
Averages and records for this station are not official NWS values.
T = Trace of Precipitation, MM = Missing Value Source: NWS Daily Summary

Daily Weather History Graph

Daily Weather History Graph

Search for Another Location

Airport or City:

Trip Planner

Search our weather history database for the weather conditions in past years. The results will help you decide how hot, cold, wet, or windy it might be!

Date:

Astronomy

Apr. 22, 2013 Rise Set
Actual Time 6:35 AM EDT 7:57 PM EDT
Civil Twilight 6:08 AM EDT 8:24 PM EDT
Nautical Twilight 5:36 AM EDT 8:56 PM EDT
Astronomical Twilight 5:02 AM EDT 9:30 PM EDT
Moon 4:50 PM EDT (4/22) 4:22 AM EDT (4/22)
Length of Visible Light 14h 16m
Length of Day
13h 22m
Waxing Gibbous, 87% of the Moon is Illuminated
Apr 22
Waxing Gibbous
Apr 25
Full
May 2
Last Quarter
May 9
New
May 18
First Quarter

Hourly Weather History & Observations

Time (EDT) Temp. Windchill Dew Point Humidity Pressure Visibility Wind Dir Wind Speed Gust Speed Precip Events Conditions
12:54 AM 46.0 °F 41.9 °F 36.0 °F 68% 30.47 in 10.0 mi East 8.1 mph - N/A   Clear
1:54 AM 44.1 °F 40.8 °F 35.1 °F 71% 30.46 in 10.0 mi ENE 5.8 mph - N/A   Clear
2:54 AM 41.0 °F 38.0 °F 33.1 °F 73% 30.44 in 10.0 mi NE 4.6 mph - N/A   Clear
3:54 AM 39.9 °F 35.8 °F 33.1 °F 77% 30.43 in 10.0 mi ENE 5.8 mph - N/A   Clear
4:54 AM 39.0 °F 34.8 °F 33.1 °F 79% 30.42 in 10.0 mi NE 5.8 mph - N/A   Clear
5:54 AM 37.9 °F 32.7 °F 34.0 °F 86% 30.43 in 10.0 mi NNE 6.9 mph - N/A   Clear
6:54 AM 37.0 °F 32.4 °F 34.0 °F 89% 30.45 in 10.0 mi North 5.8 mph - N/A   Clear
7:54 AM 39.9 °F 34.5 °F 35.1 °F 83% 30.45 in 10.0 mi North 8.1 mph - N/A   Clear
8:54 AM 45.0 °F 40.6 °F 34.0 °F 65% 30.45 in 10.0 mi NNE 8.1 mph 17.3 mph N/A   Clear
9:54 AM 48.0 °F - 28.9 °F 48% 30.44 in 10.0 mi NE 10.4 mph 19.6 mph N/A   Clear
10:54 AM 51.1 °F - 27.0 °F 39% 30.43 in 10.0 mi NE 11.5 mph - N/A   Clear
11:54 AM 54.0 °F - 26.1 °F 34% 30.40 in 10.0 mi NE 13.8 mph 21.9 mph N/A   Clear
12:54 PM 57.0 °F - 28.0 °F 33% 30.37 in 10.0 mi NNE 9.2 mph 19.6 mph N/A   Clear
1:54 PM 59.0 °F - 28.0 °F 31% 30.34 in 10.0 mi NE 11.5 mph 19.6 mph N/A   Clear
2:54 PM 61.0 °F - 28.9 °F 30% 30.32 in 10.0 mi NE 10.4 mph 19.6 mph N/A   Clear
3:54 PM 62.1 °F - 32.0 °F 32% 30.29 in 10.0 mi ENE 9.2 mph - N/A   Partly Cloudy
4:54 PM 63.0 °F - 34.0 °F 34% 30.27 in 10.0 mi NNE 9.2 mph - N/A   Mostly Cloudy
5:54 PM 61.0 °F - 35.1 °F 38% 30.26 in 10.0 mi NE 10.4 mph - N/A   Overcast
6:54 PM 59.0 °F - 37.0 °F 44% 30.26 in 10.0 mi NE 13.8 mph 18.4 mph N/A   Overcast
7:54 PM 55.9 °F - 37.9 °F 51% 30.28 in 10.0 mi ENE 9.2 mph 20.7 mph N/A   Overcast
8:54 PM 55.0 °F - 37.9 °F 53% 30.29 in 10.0 mi NE 6.9 mph - N/A   Overcast
9:54 PM 54.0 °F - 39.0 °F 57% 30.30 in 10.0 mi NE 8.1 mph - N/A   Overcast
10:54 PM 54.0 °F - 39.0 °F 57% 30.29 in 10.0 mi NE 6.9 mph 17.3 mph N/A   Overcast
11:54 PM 53.1 °F - 41.0 °F 64% 30.29 in 10.0 mi ENE 8.1 mph - N/A   Overcast